Tracking 30703 objects as of 14-Jun-2025
HD Live streaming from Space Station
objects crossing your sky now

THOR ABLESTAR DEB

Track THOR ABLESTAR DEB now!
10-day predictions


NORAD ID: 13513
Int'l Code: 1961-015KW
Perigee: 873.7 km
Apogee: 1,006.1 km
Inclination: 65.7 °
Period: 103.7 minutes
Semi major axis: 7310 km
RCS: 0.0483 m2 (small)
Launch date: June 29, 1961
Source: United States (US)
Launch site: AIR FORCE EASTERN TEST RANGE (AFETR)

Note: This is SATELLITE DEBRIS
Your satellite tracking list
Your tracking list is empty




NASA's NSSDC Master Catalog

Two Line Element Set (TLE):
1 13513U 61015KW  25165.14106525  .00000960  00000-0  83612-3 0  9997
2 13513  65.6786  50.0690 0090538  20.3110 133.6155 13.88829857268442
Source of the keplerian elements: AFSPC